Location: Seeburger
(38.8653°N, 90.5107°W)
Time: 13:30:22
(UTC+00:00)

Daily predictions for brighter satellites

Satellite Brightness Start Highest point End
(mag) Time Altitude Azimuth Time Altitude Azimuth Time Altitude Azimuth
Meteor 2-3 Rocket 4.0 12:00:33 10° SSW 12:06:02 45° WNW 12:11:29 10° N
DMSP B5D1-3 4.5 12:03:26 10° SSE 12:08:33 86° W 12:13:41 10° NNW
Meteor 1-26 Rocket 4.2 12:03:49 10° N 12:09:22 89° E 12:15:04 10° S
Cosmos 2219 Rocket 4.2 12:04:58 10° N 12:09:32 24° NE 12:14:02 10° ESE
NOSS 2-1 (C) 3.6 12:06:21 14° NW 12:09:36 64° WSW 12:14:50 10° SSE
Cosmos 1814 Rocket 4.3 12:04:27 10° S 12:09:37 72° ESE 12:14:53 10° NNE
Cosmos 2322 Rocket 3.2 12:06:22 10° N 12:11:52 47° ENE 12:17:17 10° SE
CBERS-1 3.9 12:08:12 10° N 12:13:19 80° WNW 12:18:23 10° SSW
COSMO-SKYMED 1 3.2 12:11:05 10° SSW 12:14:46 32° W 12:18:29 10° NNW
Cosmos 2058 Rocket 3.0 12:10:58 10° NNW 12:15:24 73° W 12:19:47 10° S
Cosmos-2242 2.9 12:13:03 10° N 12:17:17 76° W 12:21:27 10° S
ATLAS 2AS CENTAUR R/B 4.1 12:11:24 10° S 12:18:05 45° ESE 12:24:37 10° NE
CZ-3C R/B 4.2 12:15:12 10° SSW 12:20:51 27° SSE 12:46:35 10° ESE
COSMOS 2406 4.0 12:17:04 10° WSW 12:21:57 29° WNW 12:26:52 10° N
Thor Agena Rocket 3.5 12:18:31 10° NNE 12:23:36 88° ESE 12:28:36 10° SSW
SMAP 3.2 12:19:33 10° NNE 12:24:14 84° ESE 12:28:54 10° SSW
IRIDIUM 106 4.3 12:21:38 10° S 12:26:51 81° W 12:32:06 10° N
Landsat 7 4.0 12:25:47 10° NNE 12:30:27 77° ESE 12:35:06 10° S
COSMOS 2455 3.8 12:30:34 10° NW 12:35:39 29° WSW 12:40:41 10° SSW
Cosmos 2082 Rocket 3.8 12:33:35 10° WNW 12:36:02 13° NW 12:38:29 10° NNW
SL-16 R/B 2.3 12:32:20 10° NNW 12:37:55 59° WSW 12:43:26 10° S
CZ-2D R/B 2.6 12:36:56 10° N 12:40:07 74° WNW 12:43:16 10° SSW
NOSS 3-1 (A) 4.4 12:33:20 10° NNW 12:40:53 80° ENE 12:50:06 10° SE
Cosmos 44 4.0 22:58:34 10° NW 23:03:51 69° WSW 23:09:10 10° SSE
ARIANE 5 R/B 3.0 23:02:29 10° SE 23:07:03 36° ENE 23:11:41 10° N
Cosmos 2227 Rocket 3.8 23:04:45 10° NNE 23:07:15 13° NE 23:09:45 10° ENE
NOSS 2-2 (D) 3.6 23:05:17 10° SW 23:08:53 51° NW 23:11:56 10° NNE
CENTAUR R/B 3.9 23:08:13 10° W 23:13:03 29° NW 23:18:54 10° NNE
Cosmos 2208 Rocket 4.4 23:10:01 10° N 23:14:53 41° ENE 23:19:45 10° SE
SL-16 R/B 3.2 23:11:01 10° N 23:17:06 57° WNW 23:23:07 10° SSW
ATLAS CENTAUR R/B 2.2 23:16:07 10° N 23:18:23 18° NE 23:20:36 10° E
NOSS 2-2 (E) 3.6 23:15:12 10° SW 23:18:49 51° NW 23:21:51 10° NNE
Cosmos 1743 3.0 23:17:38 10° NNE 23:20:37 32° E 23:23:33 10° SE
BlueWalker 3 2.9 23:17:55 10° NNW 23:21:00 25° NNE 23:24:04 10° E
Cosmos 1697 Rocket 3.4 23:16:41 10° SSE 23:21:36 32° ESE 23:26:32 10° NE
Cosmos 1484 Rocket 3.8 23:18:36 10° S 23:22:00 46° W 23:25:24 10° NNW
Cosmos 1626 Rocket 3.4 23:19:34 10° N 23:23:54 76° E 23:28:11 10° SSE
SMAP 3.0 23:21:12 10° SSE 23:25:49 73° ENE 23:30:28 10° N
SOZ 4.3 23:23:26 10° WSW 23:27:02 58° NW 23:28:51 13° NE
Cosmos 1606 Rocket 4.4 23:23:47 10° SSE 23:27:33 29° E 23:31:23 10° NNE
Cosmos 1461 2.9 23:24:44 10° SSW 23:28:28 51° ESE 23:32:06 11° NE
Gbstr 26 Del rocket 3.2 23:24:29 10° SSW 23:28:33 47° SE 23:31:38 14° ENE
Cosmos 2151 3.3 23:25:07 10° N 23:29:02 39° ENE 23:32:55 10° SSE
Lacrosse 4 Rocket 4.0 23:28:50 10° WNW 23:30:27 12° NW 23:32:02 10° NNW
Landsat 7 3.7 23:27:18 10° SSE 23:31:53 63° ENE 23:36:30 10° N
IRS-1C 4.1 23:26:59 10° SSE 23:32:13 63° ENE 23:37:29 10° N
Meteor 1-20 Rocket 4.4 23:28:40 10° N 23:33:54 46° ENE 23:39:07 10° SSE
Cosmos 1544 Rocket 4.1 23:32:06 10° SSW 23:36:25 62° W 23:40:47 10° N
Thor Agena Rocket 4.0 23:33:21 10° S 23:38:33 69° WSW 23:43:44 10° NNW
Lacrosse 5 rocket 3.7 23:39:18 10° NW 23:39:50 10° NNW 23:40:21 10° NNW
Cosmos 1733 2.3 23:39:16 10° NNW 23:41:06 49° W 23:42:55 10° S
Okean 1-7 Rocket 3.9 23:37:54 10° N 23:42:02 40° ENE 23:46:07 10° SSE
SAR-Lupe-4 3.4 23:39:01 10° SSE 23:42:33 79° ENE 23:46:07 10° N
SAR-Lupe-1 4.0 23:46:29 10° SSE 23:50:04 84° E 23:53:41 10° NNW
BREEZE-M DEB (TANK) 2.9 23:50:36 10° WNW 23:51:53 18° NNW 23:52:22 17° N
Cosmos 1503 Rocket 4.0 23:47:56 10° SSW 23:53:12 88° WNW 23:58:27 10° NNE
Cosmos 1726 Rocket 4.0 23:49:33 10° SSE 23:53:56 43° E 23:58:20 10° NNE
